Location: Lafig�re
(44.4503°N, 4.0357°E)
Time: 03:37:08
(UTC+00:00)

Transit 4A - Pass Details

Date: 22 January 2021
Orbit: 866 x 978 km, 66.8° (Epoch: 02 March)

Event Time Altitude Azimuth Distance (km) Brightness Sun altitude
Rises 19:05:22 0° 207° (SSW) 3,656 11.4 -25.8°
Reaches altitude 10° 19:07:55 10° 206° (SSW) 2,717 10.6 -26.3°
Maximum altitude 19:14:18 82° 120° (ESE) 991 7.8 -27.4°
Enters shadow 19:15:08 69° 50° (NE) 1,044 7.9 -27.5°
Drops below altitude 10° 19:20:42 10° 33° (NNE) 2,721 - -28.5°
Sets 19:23:15 0° 33° (NNE) 3,662 - -29.0°
